#�ϑ�����,���ϕ���,���ϕ���,�ő啗��,�ő啗����������,�ő�u�ԕ���,�ő�u�ԕ�����������
#(�N����),(m/s)   ,(16����),(m/s)   ,(16����)        ,(m/s)       ,(16����)            
2015/12/5 0:01,1.6,16,1.6,15,2.6,15
2015/12/5 0:02,1.6,16,1.6,15,2.4,15
2015/12/5 0:03,1.6,16,1.6,15,2.2,15
2015/12/5 0:04,1.6,16,1.6,15,2.4,16
2015/12/5 0:05,1.5,16,1.6,15,2,16
2015/12/5 0:06,1.6,16,1.6,15,2,15
2015/12/5 0:07,1.6,16,1.6,15,2.2,15
2015/12/5 0:08,1.6,15,1.6,16,2.2,15
2015/12/5 0:09,1.7,15,1.7,16,2.2,15
2015/12/5 0:10,1.6,15,1.7,15,2.4,15
2015/12/5 0:11,1.6,15,1.6,15,2.7,15
2015/12/5 0:12,1.6,15,1.6,15,2.4,15
2015/12/5 0:13,1.5,15,1.6,15,2.5,15
2015/12/5 0:14,1.5,15,1.5,15,2.5,15
2015/12/5 0:15,1.6,16,1.6,15,2.7,16
2015/12/5 0:16,1.6,16,1.6,15,2.9,16
2015/12/5 0:17,1.6,16,1.6,15,2.9,16
2015/12/5 0:18,1.6,16,1.6,15,2.4,15
2015/12/5 0:19,1.6,16,1.6,15,2.4,15
2015/12/5 0:20,1.6,15,1.6,15,1.5,14
2015/12/5 0:21,1.5,15,1.6,15,1.4,15
2015/12/5 0:22,1.4,15,1.5,15,1.6,14
2015/12/5 0:23,1.3,15,1.4,16,0.6,9
2015/12/5 0:24,1.2,14,1.3,16,0.3,15
2015/12/5 0:25,1,14,1.1,16,0.4,1
2015/12/5 0:26,0.8,14,1,16,0.9,14
2015/12/5 0:27,0.6,14,0.8,16,0.6,10
2015/12/5 0:28,0.5,14,0.6,16,0.3,7
2015/12/5 0:29,0.3,14,0.4,15,0.3,7
2015/12/5 0:30,0.3,12,0.3,15,0.6,7
2015/12/5 0:31,0.2,10,0.3,15,0.1,7
2015/12/5 0:32,0.1,8,0.2,15,0.4,7
2015/12/5 0:33,0.1,8,0.1,15,0.9,10
2015/12/5 0:34,0.1,8,0.1,14,0.6,10
2015/12/5 0:35,0.1,9,0.1,15,0,10
2015/12/5 0:36,0.1,9,0.1,14,0.4,1
2015/12/5 0:37,0.2,8,0.2,14,0.8,3
2015/12/5 0:38,0.2,8,0.2,14,0.8,1
2015/12/5 0:39,0.2,8,0.2,14,0.6,1
2015/12/5 0:40,0.2,7,0.2,12,0.3,2
2015/12/5 0:41,0.2,5,0.2,10,0,2
2015/12/5 0:42,0.2,3,0.2,8,0.4,3
2015/12/5 0:43,0.2,2,0.2,8,0.8,3
2015/12/5 0:44,0.3,2,0.3,2,0.9,1
2015/12/5 0:45,0.3,2,0.3,2,0.6,1
2015/12/5 0:46,0.4,2,0.4,2,1.4,1
2015/12/5 0:47,0.4,2,0.4,2,1.4,16
2015/12/5 0:48,0.3,2,0.4,2,0.8,1
2015/12/5 0:49,0.4,2,0.4,2,1,2
2015/12/5 0:50,0.4,1,0.4,2,0.9,16
2015/12/5 0:51,0.5,1,0.5,1,1,15
2015/12/5 0:52,0.6,1,0.6,1,1.1,15
2015/12/5 0:53,0.6,16,0.6,1,1,15
2015/12/5 0:54,0.6,16,0.6,1,1.1,15
2015/12/5 0:55,0.6,16,0.6,1,1.1,15
2015/12/5 0:56,0.6,16,0.6,1,0.8,15
2015/12/5 0:57,0.6,16,0.6,1,1.1,16
2015/12/5 0:58,0.6,15,0.6,1,0.8,16
2015/12/5 0:59,0.6,15,0.6,1,0.5,15
2015/12/5 1:00,0.5,15,0.6,1,0.1,15
2015/12/5 1:01,0.4,15,0.5,1,0.3,9
2015/12/5 1:02,0.4,15,0.4,1,1.4,9
2015/12/5 1:03,0.5,14,0.5,16,1.6,8
2015/12/5 1:04,0.5,14,0.5,16,1.4,9
2015/12/5 1:05,0.5,13,0.5,16,1.1,9
2015/12/5 1:06,0.5,11,0.5,16,0.8,10
2015/12/5 1:07,0.5,10,0.5,16,0.5,10
2015/12/5 1:08,0.4,10,0.4,15,0,10
2015/12/5 1:09,0.4,9,0.4,15,0.3,1
2015/12/5 1:10,0.4,9,0.4,15,0.6,16
2015/12/5 1:11,0.4,10,0.4,14,0.5,16
2015/12/5 1:12,0.4,10,0.4,14,0.4,16
2015/12/5 1:13,0.3,13,0.4,14,0,16
2015/12/5 1:14,0.2,15,0.3,14,0,16
2015/12/5 1:15,0.1,16,0.2,12,0.5,1
2015/12/5 1:16,0.1,16,0.1,11,0.5,1
2015/12/5 1:17,0.1,1,0.1,10,0.6,2
2015/12/5 1:18,0.1,1,0.1,10,0,2
2015/12/5 1:19,0.1,1,0.1,9,0.1,2
2015/12/5 1:20,0.1,1,0.1,9,0.6,2
2015/12/5 1:21,0.2,1,0.2,10,0.6,2
2015/12/5 1:22,0.2,1,0.2,11,0.8,2
2015/12/5 1:23,0.3,1,0.3,13,0.9,2
2015/12/5 1:24,0.3,1,0.3,1,1.1,1
2015/12/5 1:25,0.3,1,0.3,1,0.8,1
2015/12/5 1:26,0.3,1,0.3,1,0.3,16
2015/12/5 1:27,0.3,1,0.3,1,0.8,15
2015/12/5 1:28,0.4,1,0.4,1,0.8,15
2015/12/5 1:29,0.4,1,0.4,1,0.1,16
2015/12/5 1:30,0.3,16,0.4,1,0.5,15
2015/12/5 1:31,0.3,16,0.3,1,0.6,16
2015/12/5 1:32,0.3,16,0.3,1,0.8,16
2015/12/5 1:33,0.3,16,0.3,1,0.6,16
2015/12/5 1:34,0.2,16,0.3,1,0.1,2
2015/12/5 1:35,0.2,16,0.2,1,0.4,2
2015/12/5 1:36,0.2,16,0.2,1,0.1,1
2015/12/5 1:37,0.2,16,0.2,1,0.1,15
2015/12/5 1:38,0.1,16,0.2,1,0.1,1
2015/12/5 1:39,0.2,16,0.2,1,0.5,2
2015/12/5 1:40,0.1,16,0.2,16,0,1
2015/12/5 1:41,0.1,1,0.1,16,0.3,6
2015/12/5 1:42,0.1,1,0.1,16,0.8,6
2015/12/5 1:43,0.2,2,0.2,16,0.8,6
2015/12/5 1:44,0.2,2,0.2,16,0.4,7
2015/12/5 1:45,0.2,2,0.2,16,1,9
2015/12/5 1:46,0.2,9,0.2,16,1.1,9
2015/12/5 1:47,0.3,8,0.3,8,1,10
2015/12/5 1:48,0.3,8,0.3,8,1,10
2015/12/5 1:49,0.4,9,0.4,8,0.6,11
2015/12/5 1:50,0.4,9,0.4,8,0.5,14
2015/12/5 1:51,0.4,10,0.4,8,0.5,15
2015/12/5 1:52,0.4,11,0.4,8,0.8,14
2015/12/5 1:53,0.4,11,0.4,8,1.3,12
2015/12/5 1:54,0.5,12,0.5,12,1.5,12
2015/12/5 1:55,0.7,12,0.7,12,2.1,13
2015/12/5 1:56,0.8,12,0.8,12,1.8,13
2015/12/5 1:57,0.8,13,0.8,12,1.1,13
2015/12/5 1:58,0.8,13,0.8,12,0.9,14
2015/12/5 1:59,0.8,13,0.8,12,0.8,14
2015/12/5 2:00,0.8,14,0.8,12,0.6,1
2015/12/5 2:01,0.9,14,0.9,14,0.8,1
2015/12/5 2:02,0.9,14,0.9,14,1,1
2015/12/5 2:03,0.9,15,0.9,14,1.8,1
2015/12/5 2:04,0.9,15,0.9,14,1.4,1
2015/12/5 2:05,0.7,16,0.8,14,0.4,2
2015/12/5 2:06,0.6,16,0.7,14,0.3,1
2015/12/5 2:07,0.5,1,0.5,14,0.8,2
2015/12/5 2:08,0.5,1,0.5,14,0.8,2
2015/12/5 2:09,0.4,1,0.5,14,0,1
2015/12/5 2:10,0.4,1,0.4,14,0.1,2
2015/12/5 2:11,0.3,1,0.4,14,0.1,1
2015/12/5 2:12,0.3,2,0.3,14,0.6,3
2015/12/5 2:13,0.2,2,0.3,15,0.6,2
2015/12/5 2:14,0.2,2,0.2,15,0.9,1
2015/12/5 2:15,0.2,2,0.2,16,0.6,2
2015/12/5 2:16,0.2,2,0.2,16,0.1,2
2015/12/5 2:17,0.2,2,0.2,1,0.3,2
2015/12/5 2:18,0.2,2,0.2,1,0.6,1
2015/12/5 2:19,0.3,2,0.3,1,0.9,16
2015/12/5 2:20,0.4,1,0.4,1,1.3,16
2015/12/5 2:21,0.4,1,0.4,1,1,16
2015/12/5 2:22,0.4,1,0.4,1,0.5,15
2015/12/5 2:23,0.4,1,0.4,1,0.6,10
2015/12/5 2:24,0.4,1,0.4,1,1,7
2015/12/5 2:25,0.4,1,0.4,1,0.9,8
2015/12/5 2:26,0.4,15,0.4,1,0.4,8
2015/12/5 2:27,0.4,13,0.4,1,0.1,9
2015/12/5 2:28,0.4,13,0.4,1,0.6,16
2015/12/5 2:29,0.3,13,0.4,1,0.1,16
2015/12/5 2:30,0.2,13,0.3,1,0,14
2015/12/5 2:31,0.2,13,0.2,1,0,16
2015/12/5 2:32,0.2,12,0.2,1,0,2
2015/12/5 2:33,0.1,5,0.2,1,0.1,7
2015/12/5 2:34,0.1,6,0.1,1,0.1,8
2015/12/5 2:35,0,6,0.1,16,0.5,8
2015/12/5 2:36,0.1,5,0.1,15,0.5,8
2015/12/5 2:37,0.1,7,0.1,13,0.4,8
2015/12/5 2:38,0.1,8,0.1,13,0.3,8
2015/12/5 2:39,0.1,8,0.1,13,0.3,1
2015/12/5 2:40,0.1,7,0.1,13,0.5,16
2015/12/5 2:41,0.1,7,0.1,13,0.4,3
2015/12/5 2:42,0.1,7,0.1,12,0.4,3
2015/12/5 2:43,0.1,7,0.1,5,0,4
2015/12/5 2:44,0.1,6,0.1,6,0.3,3
2015/12/5 2:45,0.1,5,0.1,6,0.1,1
2015/12/5 2:46,0.1,4,0.1,5,0.1,10
2015/12/5 2:47,0.1,4,0.1,7,0.3,9
2015/12/5 2:48,0.1,4,0.1,8,0.6,8
2015/12/5 2:49,0.1,4,0.1,8,0.3,9
2015/12/5 2:50,0.1,6,0.1,7,0,9
2015/12/5 2:51,0.1,9,0.1,7,0.1,11
2015/12/5 2:52,0.1,10,0.1,7,0.6,10
2015/12/5 2:53,0.1,11,0.1,6,0.5,10
2015/12/5 2:54,0.1,11,0.1,6,0.6,13
2015/12/5 2:55,0.2,11,0.2,11,1,12
2015/12/5 2:56,0.2,11,0.2,11,0.4,9
2015/12/5 2:57,0.2,10,0.2,11,0,7
2015/12/5 2:58,0.2,10,0.2,11,0.3,9
2015/12/5 2:59,0.2,10,0.2,11,0.5,8
2015/12/5 3:00,0.2,10,0.2,11,0.3,2
2015/12/5 3:01,0.2,10,0.2,11,0.4,4
2015/12/5 3:02,0.1,10,0.2,11,0.3,1
2015/12/5 3:03,0.1,9,0.1,11,0.5,2
2015/12/5 3:04,0.1,7,0.1,11,0.3,3
2015/12/5 3:05,0.1,6,0.1,11,0.3,3
2015/12/5 3:06,0,5,0.1,10,0.1,3
2015/12/5 3:07,0,5,0,10,0,11
2015/12/5 3:08,0,3,0,10,0.3,2
2015/12/5 3:09,0,2,0,10,0.1,2
2015/12/5 3:10,0,2,0,10,0.1,9
2015/12/5 3:11,0,2,0,10,0.5,11
2015/12/5 3:12,0,10,0,10,0.5,10
2015/12/5 3:13,0,11,0,9,0.3,11
2015/12/5 3:14,0.1,11,0.1,7,0.6,10
2015/12/5 3:15,0.1,11,0.1,6,0.9,11
2015/12/5 3:16,0.2,10,0.2,11,1,9
2015/12/5 3:17,0.2,10,0.2,11,0.8,9
2015/12/5 3:18,0.3,10,0.3,10,1,11
2015/12/5 3:19,0.4,10,0.4,10,0.9,11
2015/12/5 3:20,0.4,10,0.4,10,0.6,12
2015/12/5 3:21,0.5,10,0.5,10,1,10
2015/12/5 3:22,0.5,10,0.5,10,1,12
2015/12/5 3:23,0.5,10,0.5,10,0.5,8
2015/12/5 3:24,0.5,10,0.5,10,0.1,7
2015/12/5 3:25,0.4,10,0.5,10,0.4,9
2015/12/5 3:26,0.4,10,0.4,10,0.6,10
2015/12/5 3:27,0.4,10,0.4,10,0.9,8
2015/12/5 3:28,0.4,10,0.4,10,1,10
2015/12/5 3:29,0.4,10,0.4,10,1,12
2015/12/5 3:30,0.4,10,0.4,10,0.9,12
2015/12/5 3:31,0.4,9,0.4,10,0.6,8
2015/12/5 3:32,0.3,9,0.4,10,0.5,7
2015/12/5 3:33,0.4,9,0.4,10,0.9,8
2015/12/5 3:34,0.4,9,0.4,10,1.6,7
2015/12/5 3:35,0.5,9,0.5,9,1.6,7
2015/12/5 3:36,0.6,9,0.6,9,1.8,8
2015/12/5 3:37,0.7,9,0.7,9,2,9
2015/12/5 3:38,0.7,9,0.7,9,1.5,9
2015/12/5 3:39,0.7,8,0.7,9,1.1,9
2015/12/5 3:40,0.7,8,0.8,8,1.3,10
2015/12/5 3:41,0.7,8,0.7,8,0.8,8
2015/12/5 3:42,0.8,9,0.8,8,1.6,8
2015/12/5 3:43,0.9,9,0.9,9,1.8,9
2015/12/5 3:44,0.9,9,0.9,9,2,10
2015/12/5 3:45,0.9,9,0.9,9,2,9
2015/12/5 3:46,0.8,9,0.9,9,1.6,9
2015/12/5 3:47,0.7,10,0.8,9,0.5,12
2015/12/5 3:48,0.7,10,0.7,9,1.3,9
2015/12/5 3:49,0.7,10,0.7,9,1.3,9
2015/12/5 3:50,0.6,10,0.7,9,0.9,10
2015/12/5 3:51,0.7,10,0.7,9,0.6,9
2015/12/5 3:52,0.6,10,0.7,9,0.6,10
2015/12/5 3:53,0.5,10,0.6,9,0.6,10
2015/12/5 3:54,0.4,10,0.5,9,0.1,10
2015/12/5 3:55,0.3,10,0.4,9,0.3,10
2015/12/5 3:56,0.3,10,0.3,9,0,9
2015/12/5 3:57,0.2,10,0.3,10,0.1,11
2015/12/5 3:58,0.2,10,0.2,10,0,11
2015/12/5 3:59,0.2,10,0.2,10,0.9,6
2015/12/5 4:00,0.2,9,0.2,10,0.9,7
2015/12/5 4:01,0.1,9,0.1,10,0.4,5
2015/12/5 4:02,0.1,8,0.1,10,0.3,5
2015/12/5 4:03,0.1,8,0.1,10,0.6,9
2015/12/5 4:04,0.2,8,0.2,10,1,9
2015/12/5 4:05,0.2,8,0.2,10,0.3,9
2015/12/5 4:06,0.2,7,0.2,10,0.3,15
2015/12/5 4:07,0.2,6,0.2,10,0.3,3
2015/12/5 4:08,0.2,5,0.2,10,0.3,6
2015/12/5 4:09,0.2,5,0.2,10,0.1,4
2015/12/5 4:10,0.2,5,0.2,8,0.5,2
2015/12/5 4:11,0.1,5,0.2,8,0.3,6
2015/12/5 4:12,0.1,4,0.1,8,0.4,16
2015/12/5 4:13,0.1,3,0.1,8,0.9,2
2015/12/5 4:14,0.1,2,0.1,8,0.9,2
2015/12/5 4:15,0.1,2,0.1,8,0.8,1
2015/12/5 4:16,0.1,3,0.1,7,0.3,1
2015/12/5 4:17,0.2,3,0.2,6,0.6,3
2015/12/5 4:18,0.2,2,0.2,5,0.5,3
2015/12/5 4:19,0.2,3,0.2,5,0.6,9
2015/12/5 4:20,0.2,3,0.2,5,1.3,8
2015/12/5 4:21,0.2,3,0.2,3,0.9,8
2015/12/5 4:22,0.2,4,0.2,3,0.5,7
2015/12/5 4:23,0.2,4,0.3,4,0.5,7
2015/12/5 4:24,0.2,5,0.2,4,0.5,8
2015/12/5 4:25,0.2,6,0.2,4,1,8
2015/12/5 4:26,0.3,7,0.3,4,1.1,9
2015/12/5 4:27,0.3,7,0.3,4,1,9
2015/12/5 4:28,0.3,8,0.3,4,1,9
2015/12/5 4:29,0.4,8,0.4,8,0.9,10
2015/12/5 4:30,0.3,9,0.4,8,0.6,14
2015/12/5 4:31,0.5,10,0.5,10,1.8,14
2015/12/5 4:32,0.5,10,0.5,10,1.8,15
2015/12/5 4:33,0.5,11,0.5,10,0.6,16
2015/12/5 4:34,0.5,12,0.5,10,0.1,1
2015/12/5 4:35,0.5,13,0.5,10,0.5,16
2015/12/5 4:36,0.5,14,0.5,10,1,16
2015/12/5 4:37,0.5,15,0.5,10,0.4,16
2015/12/5 4:38,0.4,15,0.5,10,0.9,6
2015/12/5 4:39,0.4,16,0.4,10,0.8,6
2015/12/5 4:40,0.4,1,0.4,10,0.3,5
2015/12/5 4:41,0.4,1,0.4,10,1.5,16
2015/12/5 4:42,0.3,1,0.4,10,1,1
2015/12/5 4:43,0.4,1,0.4,11,1.8,16
2015/12/5 4:44,0.5,1,0.5,12,2,16
2015/12/5 4:45,0.6,1,0.6,1,2,1
2015/12/5 4:46,0.6,2,0.6,1,1.6,3
2015/12/5 4:47,0.8,2,0.8,2,2,3
2015/12/5 4:48,0.8,2,0.8,2,0.9,1
2015/12/5 4:49,0.8,2,0.8,2,0.9,4
2015/12/5 4:50,0.8,2,0.8,2,1,4
2015/12/5 4:51,0.7,2,0.8,2,0.5,4
2015/12/5 4:52,0.7,2,0.7,2,0.5,1
2015/12/5 4:53,0.7,3,0.7,2,0.5,1
2015/12/5 4:54,0.6,3,0.6,2,0.6,5
2015/12/5 4:55,0.5,4,0.6,2,1,6
2015/12/5 4:56,0.4,4,0.5,2,0.1,8
2015/12/5 4:57,0.2,5,0.4,2,0.1,8
2015/12/5 4:58,0.2,4,0.2,2,0.1,2
2015/12/5 4:59,0.2,5,0.2,2,1.5,7
2015/12/5 5:00,0.3,6,0.3,2,2.1,8
2015/12/5 5:01,0.4,7,0.4,2,2.5,9
2015/12/5 5:02,0.5,8,0.5,2,1.5,9
2015/12/5 5:03,0.5,8,0.5,3,1.4,9
2015/12/5 5:04,0.5,9,0.5,3,1.3,9
2015/12/5 5:05,0.6,9,0.6,9,1.4,9
2015/12/5 5:06,0.6,9,0.6,9,1.4,9
2015/12/5 5:07,0.7,10,0.7,9,0.5,14
2015/12/5 5:08,0.7,10,0.7,9,0.5,13
2015/12/5 5:09,0.6,10,0.7,9,0.8,1
2015/12/5 5:10,0.6,11,0.6,9,1.5,1
2015/12/5 5:11,0.6,12,0.6,9,1.4,16
2015/12/5 5:12,0.6,14,0.6,9,1,16
2015/12/5 5:13,0.5,15,0.6,9,0.5,2
2015/12/5 5:14,0.5,16,0.5,9,1.1,1
2015/12/5 5:15,0.5,1,0.5,9,1.6,1
2015/12/5 5:16,0.5,1,0.5,9,1.3,2
2015/12/5 5:17,0.7,2,0.7,10,2.4,3
2015/12/5 5:18,0.8,2,0.8,2,2.4,3
2015/12/5 5:19,1,2,1,2,1.9,4
2015/12/5 5:20,1,3,1,2,2.1,4
2015/12/5 5:21,1,3,1.1,3,2,5
2015/12/5 5:22,1,3,1,3,1.6,6
2015/12/5 5:23,1.1,4,1.1,3,1.1,6
2015/12/5 5:24,1,4,1.1,3,0.8,7
2015/12/5 5:25,0.9,4,1,3,0.6,2
2015/12/5 5:26,0.9,5,0.9,3,1.1,11
2015/12/5 5:27,0.8,6,0.9,3,1.5,12
2015/12/5 5:28,0.8,8,0.8,3,1.8,12
2015/12/5 5:29,0.8,10,0.8,3,1.9,10
2015/12/5 5:30,0.7,10,0.8,3,1.8,10
2015/12/5 5:31,0.7,11,0.7,4,0.6,13
2015/12/5 5:32,0.7,11,0.7,4,0.9,12
2015/12/5 5:33,0.7,12,0.7,4,1,13
2015/12/5 5:34,0.7,12,0.7,4,0.8,12
2015/12/5 5:35,0.7,11,0.7,4,0.5,8
2015/12/5 5:36,0.7,11,0.7,5,0.8,2
2015/12/5 5:37,0.6,11,0.7,6,1,1
2015/12/5 5:38,0.6,12,0.6,8,1.4,1
2015/12/5 5:39,0.5,13,0.6,10,0.6,4
2015/12/5 5:40,0.4,14,0.4,10,0.9,3
2015/12/5 5:41,0.5,1,0.5,11,1,4
2015/12/5 5:42,0.5,3,0.5,11,0.9,5
2015/12/5 5:43,0.5,4,0.5,12,0.8,5
2015/12/5 5:44,0.5,4,0.5,12,0.8,4
2015/12/5 5:45,0.5,4,0.5,11,0.8,3
2015/12/5 5:46,0.5,3,0.5,11,0.4,3
2015/12/5 5:47,0.5,4,0.5,11,0,1
2015/12/5 5:48,0.4,4,0.5,12,0,13
2015/12/5 5:49,0.4,4,0.4,14,0,12
2015/12/5 5:50,0.3,3,0.4,14,0.4,4
2015/12/5 5:51,0.2,3,0.3,2,0.4,4
2015/12/5 5:52,0.2,2,0.2,4,0.6,16
2015/12/5 5:53,0.2,1,0.2,4,0.6,15
2015/12/5 5:54,0.1,16,0.2,4,0.8,15
2015/12/5 5:55,0.2,16,0.2,4,1.4,15
2015/12/5 5:56,0.3,16,0.3,3,1.5,16
2015/12/5 5:57,0.5,16,0.5,4,1.8,16
2015/12/5 5:58,0.6,16,0.6,16,2,1
2015/12/5 5:59,0.7,1,0.7,16,1.6,1
2015/12/5 6:00,0.8,1,0.8,1,1.4,1
2015/12/5 6:01,0.9,16,0.9,16,1.1,1
2015/12/5 6:02,1,1,1,1,1.6,16
2015/12/5 6:03,1.1,1,1.1,1,2.1,1
2015/12/5 6:04,1.2,1,1.2,1,1.8,16
2015/12/5 6:05,1.3,1,1.3,1,1.9,16
2015/12/5 6:06,1.3,1,1.3,1,1.9,16
2015/12/5 6:07,1.3,16,1.3,1,2,15
2015/12/5 6:08,1.3,16,1.3,1,1.8,15
2015/12/5 6:09,1.3,16,1.3,1,1.4,14
2015/12/5 6:10,1.2,15,1.3,1,0.8,11
2015/12/5 6:11,1.3,15,1.3,1,2,9
2015/12/5 6:12,1.3,14,1.3,1,1.4,8
2015/12/5 6:13,1.3,13,1.3,1,1.5,9
2015/12/5 6:14,1.3,12,1.3,1,1.5,9
2015/12/5 6:15,1.3,11,1.3,1,2,8
2015/12/5 6:16,1.2,10,1.2,1,1.8,9
2015/12/5 6:17,1.2,10,1.2,16,2,9
2015/12/5 6:18,1.1,10,1.1,16,1.5,10
2015/12/5 6:19,1.1,9,1.1,16,1.5,10
2015/12/5 6:20,1.1,10,1.1,15,0.6,8
2015/12/5 6:21,1,10,1.1,15,0.4,13
2015/12/5 6:22,0.9,9,1,14,0.3,4
2015/12/5 6:23,0.7,9,0.8,13,0.3,6
2015/12/5 6:24,0.6,9,0.7,12,0,7
2015/12/5 6:25,0.5,8,0.6,11,0.3,8
2015/12/5 6:26,0.4,8,0.5,10,0.3,8
2015/12/5 6:27,0.3,8,0.3,10,0.6,6
2015/12/5 6:28,0.2,7,0.3,10,0.8,6
2015/12/5 6:29,0.1,7,0.2,9,0.4,10
2015/12/5 6:30,0.1,7,0.1,10,0,8
2015/12/5 6:31,0,7,0.1,10,0,8
2015/12/5 6:32,0,8,0,9,0,8
2015/12/5 6:33,0,8,0,9,0.3,16
2015/12/5 6:34,0.1,8,0.1,9,0.6,16
2015/12/5 6:35,0.1,8,0.1,8,1,1
2015/12/5 6:36,0.2,7,0.2,8,0.8,2
2015/12/5 6:37,0.2,6,0.2,8,0.9,1
2015/12/5 6:38,0.2,6,0.2,7,0.9,11
2015/12/5 6:39,0.3,14,0.3,5,1,11
2015/12/5 6:40,0.3,13,0.3,5,1,10
2015/12/5 6:41,0.4,13,0.4,13,1,10
2015/12/5 6:42,0.5,13,0.5,13,1.3,10
2015/12/5 6:43,0.6,13,0.6,13,1.9,8
2015/12/5 6:44,0.6,11,0.6,13,1.9,10
2015/12/5 6:45,0.6,11,0.6,13,1.8,8
2015/12/5 6:46,0.7,10,0.7,10,1.5,9
2015/12/5 6:47,0.7,10,0.7,10,1.4,9
2015/12/5 6:48,0.7,10,0.7,10,1,10
2015/12/5 6:49,0.7,10,0.7,10,1,11
2015/12/5 6:50,0.8,10,0.8,10,1.1,12
2015/12/5 6:51,0.8,10,0.8,10,1.3,13
2015/12/5 6:52,0.8,10,0.8,10,1,13
2015/12/5 6:53,0.8,11,0.8,10,1.1,11
2015/12/5 6:54,0.8,11,0.8,10,1.3,12
2015/12/5 6:55,0.8,11,0.8,10,1.5,11
2015/12/5 6:56,0.9,12,0.9,11,1.8,12
2015/12/5 6:57,1,12,1,12,1.9,12
2015/12/5 6:58,1.1,12,1.1,12,1.5,14
2015/12/5 6:59,1.1,12,1.1,12,1.6,14
2015/12/5 7:00,1.1,13,1.1,12,1.6,15
2015/12/5 7:01,1.1,13,1.1,12,1.3,12
2015/12/5 7:02,1.1,13,1.1,12,1,12
2015/12/5 7:03,1,13,1.1,12,1,13
2015/12/5 7:04,1,13,1,12,1.1,15
2015/12/5 7:05,1,14,1,12,1.5,16
2015/12/5 7:06,0.9,14,1,12,1.3,15
2015/12/5 7:07,0.8,14,0.9,12,0.8,15
2015/12/5 7:08,0.7,14,0.8,12,0.9,6
2015/12/5 7:09,0.6,14,0.7,12,0.6,6
2015/12/5 7:10,0.6,14,0.6,13,0.9,3
2015/12/5 7:11,0.6,15,0.6,13,1.3,2
2015/12/5 7:12,0.6,16,0.6,13,1.3,3
2015/12/5 7:13,0.6,1,0.6,13,1,2
2015/12/5 7:14,0.6,1,0.6,13,0.9,1
2015/12/5 7:15,0.5,2,0.6,14,0.9,1
2015/12/5 7:16,0.5,2,0.5,14,0.9,2
2015/12/5 7:17,0.5,2,0.5,14,0.8,1
2015/12/5 7:18,0.5,2,0.5,14,0.6,1
2015/12/5 7:19,0.5,2,0.5,14,0.8,1
2015/12/5 7:20,0.6,2,0.6,14,1,1
2015/12/5 7:21,0.5,1,0.6,15,0.9,16
2015/12/5 7:22,0.5,1,0.5,16,0.8,16
2015/12/5 7:23,0.5,1,0.5,1,0.9,16
2015/12/5 7:24,0.5,1,0.6,1,0.6,16
2015/12/5 7:25,0.5,1,0.5,2,0.8,1
2015/12/5 7:26,0.5,1,0.5,2,0.8,1
2015/12/5 7:27,0.4,1,0.5,2,0.3,1
2015/12/5 7:28,0.4,1,0.4,2,0,1
2015/12/5 7:29,0.4,1,0.4,2,0,1
2015/12/5 7:30,0.3,1,0.4,2,0.4,8
2015/12/5 7:31,0.3,1,0.3,1,0.4,7
2015/12/5 7:32,0.2,1,0.3,1,0.4,8
2015/12/5 7:33,0.2,2,0.2,1,0,8
2015/12/5 7:34,0.1,3,0.2,1,0.6,4
2015/12/5 7:35,0.1,3,0.1,1,0.6,4
2015/12/5 7:36,0.1,3,0.1,1,0.9,16
2015/12/5 7:37,0.2,3,0.2,1,0.6,1
2015/12/5 7:38,0.2,3,0.2,1,0,15
2015/12/5 7:39,0.2,3,0.2,1,0,15
2015/12/5 7:40,0.2,2,0.2,1,0.4,9
2015/12/5 7:41,0.2,1,0.2,1,0.6,10
2015/12/5 7:42,0.2,1,0.2,1,0.3,8
2015/12/5 7:43,0.2,1,0.2,2,0.3,10
2015/12/5 7:44,0.2,13,0.2,3,0.3,8
2015/12/5 7:45,0.1,12,0.2,3,0.1,14
2015/12/5 7:46,0.1,12,0.1,3,0.4,16
2015/12/5 7:47,0.1,12,0.1,3,0.4,16
2015/12/5 7:48,0.1,12,0.1,3,0,16
2015/12/5 7:49,0.1,13,0.1,3,0,16
2015/12/5 7:50,0.1,14,0.1,2,0.3,16
2015/12/5 7:51,0,15,0,1,0.4,3
2015/12/5 7:52,0.1,16,0.1,1,0.5,4
2015/12/5 7:53,0.1,16,0.1,1,0.4,4
2015/12/5 7:54,0.1,16,0.1,13,0.5,12
2015/12/5 7:55,0.1,16,0.1,12,0.5,12
2015/12/5 7:56,0.1,16,0.1,12,0.3,10
2015/12/5 7:57,0.1,16,0.1,12,0.8,1
2015/12/5 7:58,0.2,1,0.2,16,0.9,1
2015/12/5 7:59,0.3,1,0.3,1,1,1
2015/12/5 8:00,0.3,1,0.3,1,1,1
2015/12/5 8:01,0.4,1,0.4,1,0.8,1
2015/12/5 8:02,0.4,1,0.4,1,0.9,1
2015/12/5 8:03,0.4,16,0.4,1,0.9,2
2015/12/5 8:04,0.5,1,0.5,1,0.8,2
2015/12/5 8:05,0.5,1,0.5,1,0.6,2
2015/12/5 8:06,0.5,1,0.5,1,0.1,2
2015/12/5 8:07,0.5,2,0.5,1,0.8,3
2015/12/5 8:08,0.5,2,0.5,1,1,3
2015/12/5 8:09,0.4,2,0.5,1,0,16
2015/12/5 8:10,0.3,2,0.4,1,0,15
2015/12/5 8:11,0.3,2,0.3,1,0.5,8
2015/12/5 8:12,0.3,3,0.3,1,1.3,9
2015/12/5 8:13,0.3,5,0.3,1,1.5,8
2015/12/5 8:14,0.3,7,0.3,1,1.5,8
2015/12/5 8:15,0.4,8,0.4,1,1.8,9
2015/12/5 8:16,0.4,8,0.4,1,0.9,10
2015/12/5 8:17,0.5,9,0.5,2,1.3,8
2015/12/5 8:18,0.5,9,0.5,2,1.1,9
2015/12/5 8:19,0.5,8,0.5,9,0.1,8
2015/12/5 8:20,0.5,8,0.5,9,0.9,7
2015/12/5 8:21,0.6,8,0.6,8,1.3,8
2015/12/5 8:22,0.6,8,0.6,8,0.8,9
2015/12/5 8:23,0.5,8,0.6,8,1.9,9
2015/12/5 8:24,0.5,8,0.5,8,1.3,9
2015/12/5 8:25,0.5,8,0.5,8,1.5,9
2015/12/5 8:26,0.6,8,0.6,8,2.6,10
2015/12/5 8:27,0.6,8,0.6,8,1.5,10
2015/12/5 8:28,0.7,8,0.7,8,2,8
2015/12/5 8:29,0.7,9,0.7,8,0.5,9
2015/12/5 8:30,0.7,9,0.7,8,1.1,8
2015/12/5 8:31,0.7,9,0.7,8,1.1,10
2015/12/5 8:32,0.7,9,0.7,8,0.5,8
2015/12/5 8:33,0.6,9,0.7,8,0.1,9
2015/12/5 8:34,0.5,10,0.6,8,0,14
2015/12/5 8:35,0.4,10,0.5,8,0,12
2015/12/5 8:36,0.4,10,0.4,8,1.5,10
2015/12/5 8:37,0.4,11,0.4,8,1.5,10
2015/12/5 8:38,0.4,11,0.4,8,2,10
2015/12/5 8:39,0.5,11,0.5,9,1.6,9
2015/12/5 8:40,0.5,10,0.5,9,1.1,8
2015/12/5 8:41,0.5,11,0.6,9,1.4,9
2015/12/5 8:42,0.5,11,0.5,9,1.1,9
2015/12/5 8:43,0.7,10,0.7,10,2.2,9
2015/12/5 8:44,0.8,10,0.8,10,2.1,9
2015/12/5 8:45,0.9,10,0.9,10,2.2,8
2015/12/5 8:46,0.9,10,0.9,10,2.4,9
2015/12/5 8:47,0.9,9,0.9,10,2.9,8
2015/12/5 8:48,0.8,9,0.9,10,1.5,9
2015/12/5 8:49,0.8,9,0.8,10,1,8
2015/12/5 8:50,0.7,9,0.8,10,1,10
2015/12/5 8:51,0.8,9,0.8,10,1.5,10
2015/12/5 8:52,0.8,9,0.8,10,0.9,14
2015/12/5 8:53,0.7,10,0.8,10,1,8
2015/12/5 8:54,0.6,10,0.7,10,0.3,5
2015/12/5 8:55,0.5,10,0.6,10,0.9,8
2015/12/5 8:56,0.6,10,0.6,9,2.2,9
2015/12/5 8:57,0.5,10,0.5,9,1.8,8
2015/12/5 8:58,0.6,10,0.6,9,2.6,9
2015/12/5 8:59,0.8,9,0.8,9,2.5,8
2015/12/5 9:00,0.8,9,0.8,9,2.2,8
2015/12/5 9:01,0.9,9,0.9,9,2.6,8
2015/12/5 9:02,1,9,1,9,3,8
2015/12/5 9:03,1.1,9,1.1,9,2.7,8
2015/12/5 9:04,1.2,9,1.2,9,2.2,8
2015/12/5 9:05,1.2,9,1.2,9,1.8,8
2015/12/5 9:06,1.2,9,1.2,9,2.2,9
2015/12/5 9:07,1.1,9,1.2,9,1.3,7
2015/12/5 9:08,1,9,1.1,9,0.5,6
2015/12/5 9:09,0.9,9,1,9,1.3,9
2015/12/5 9:10,0.8,9,0.8,9,1.1,10
2015/12/5 9:11,0.8,9,0.8,9,1,10
2015/12/5 9:12,0.7,8,0.8,9,1.4,8
2015/12/5 9:13,0.7,8,0.7,9,1.5,8
2015/12/5 9:14,0.6,8,0.7,9,1,9
2015/12/5 9:15,0.6,7,0.6,9,1,7
2015/12/5 9:16,0.6,7,0.6,9,1,7
2015/12/5 9:17,0.5,7,0.6,9,0.5,6
2015/12/5 9:18,0.5,7,0.5,9,0.8,8
2015/12/5 9:19,0.6,7,0.6,9,2.4,9
2015/12/5 9:20,0.7,7,0.7,9,1.8,8
2015/12/5 9:21,0.8,7,0.8,9,3.1,9
2015/12/5 9:22,0.7,7,0.8,7,2.7,9
2015/12/5 9:23,0.8,7,0.8,7,3,9
2015/12/5 9:24,0.9,8,0.9,7,2.4,9
2015/12/5 9:25,0.9,8,0.9,7,1.4,9
2015/12/5 9:26,1,8,1,8,2.9,9
2015/12/5 9:27,1.1,8,1.1,8,3.1,8
2015/12/5 9:28,1.2,9,1.2,9,2.5,9
2015/12/5 9:29,1.1,9,1.2,9,2.4,9
2015/12/5 9:30,1.2,9,1.2,9,1.8,8
2015/12/5 9:31,1.1,9,1.2,9,1.6,9
2015/12/5 9:32,1.2,9,1.2,9,2.1,9
2015/12/5 9:33,1.1,9,1.2,9,1.8,10
2015/12/5 9:34,1.1,9,1.1,9,2.2,9
2015/12/5 9:35,1.2,9,1.2,9,2.1,8
2015/12/5 9:36,1.2,9,1.2,9,2.4,8
2015/12/5 9:37,1.1,9,1.2,9,1,8
2015/12/5 9:38,1,9,1.1,9,1.5,12
2015/12/5 9:39,1,10,1,9,1.5,12
2015/12/5 9:40,1,10,1,9,1,12
2015/12/5 9:41,0.9,10,0.9,9,1.6,13
2015/12/5 9:42,0.9,11,0.9,9,1.4,12
2015/12/5 9:43,0.8,11,0.9,9,0.4,12
2015/12/5 9:44,0.6,11,0.8,9,0,12
2015/12/5 9:45,0.5,11,0.6,9,0.1,5
2015/12/5 9:46,0.4,12,0.5,9,0.1,5
2015/12/5 9:47,0.4,12,0.4,9,0,4
2015/12/5 9:48,0.4,14,0.4,9,0.8,4
2015/12/5 9:49,0.3,4,0.4,10,1.1,6
2015/12/5 9:50,0.3,4,0.3,10,0.6,5
2015/12/5 9:51,0.3,5,0.3,10,1,5
2015/12/5 9:52,0.2,4,0.3,11,0.4,7
2015/12/5 9:53,0.2,5,0.2,11,1.1,8
2015/12/5 9:54,0.3,5,0.3,11,0.9,9
2015/12/5 9:55,0.3,5,0.3,12,0.5,9
2015/12/5 9:56,0.3,5,0.3,12,1.1,9
2015/12/5 9:57,0.4,5,0.4,12,2.2,9
2015/12/5 9:58,0.4,6,0.4,15,1.8,9
2015/12/5 9:59,0.4,7,0.4,5,1,8
2015/12/5 10:00,0.3,7,0.4,5,0.3,7
2015/12/5 10:01,0.3,7,0.3,5,0.6,6
2015/12/5 10:02,0.4,7,0.4,5,1.4,6
2015/12/5 10:03,0.4,7,0.4,5,1,6
2015/12/5 10:04,0.4,7,0.4,5,1,5
2015/12/5 10:05,0.5,7,0.5,7,1.1,11
2015/12/5 10:06,0.5,7,0.5,7,1,7
2015/12/5 10:07,0.4,7,0.5,7,0.8,6
2015/12/5 10:08,0.4,7,0.4,7,1.3,6
2015/12/5 10:09,0.5,6,0.5,7,1.8,6
2015/12/5 10:10,0.6,6,0.6,6,1.8,7
2015/12/5 10:11,0.7,6,0.7,6,2.4,8
2015/12/5 10:12,0.7,6,0.7,6,2.1,6
2015/12/5 10:13,0.7,7,0.7,6,1.1,5
2015/12/5 10:14,0.7,6,0.7,6,0.4,4
2015/12/5 10:15,0.7,6,0.7,6,0.9,7
2015/12/5 10:16,0.7,7,0.7,6,2.1,8
2015/12/5 10:17,0.8,7,0.8,7,2.2,8
2015/12/5 10:18,0.9,7,0.9,7,2.9,8
2015/12/5 10:19,1,7,1,7,1.6,9
2015/12/5 10:20,0.9,7,0.9,7,2,8
2015/12/5 10:21,0.9,8,0.9,7,1.5,8
2015/12/5 10:22,0.8,8,0.9,7,2.6,9
2015/12/5 10:23,1,8,1,7,3.8,8
2015/12/5 10:24,1.2,8,1.2,8,3.8,8
2015/12/5 10:25,1.3,9,1.3,8,2.7,7
2015/12/5 10:26,1.4,8,1.4,8,2.2,8
2015/12/5 10:27,1.4,8,1.4,8,2.5,8
2015/12/5 10:28,1.4,9,1.4,8,2.4,7
2015/12/5 10:29,1.5,9,1.5,9,3.1,8
2015/12/5 10:30,1.5,9,1.5,9,2.5,9
2015/12/5 10:31,1.6,9,1.6,9,2.4,9
2015/12/5 10:32,1.6,9,1.7,8,3.3,9
2015/12/5 10:33,1.7,9,1.7,8,3.5,9
2015/12/5 10:34,1.7,9,1.8,9,3.7,7
2015/12/5 10:35,1.7,9,1.7,9,3.9,10
2015/12/5 10:36,1.7,9,1.7,9,3.1,9
2015/12/5 10:37,1.7,9,1.7,9,2.7,10
2015/12/5 10:38,1.7,9,1.7,9,2.5,10
2015/12/5 10:39,1.6,9,1.7,9,1.3,10
2015/12/5 10:40,1.5,10,1.6,9,1.4,13
2015/12/5 10:41,1.5,10,1.5,9,1.8,10
2015/12/5 10:42,1.4,10,1.5,9,2.1,9
2015/12/5 10:43,1.4,10,1.4,9,2.6,8
2015/12/5 10:44,1.3,10,1.3,9,2.5,10
2015/12/5 10:45,1.3,10,1.3,9,2.5,8
2015/12/5 10:46,1.3,10,1.3,9,2.7,8
2015/12/5 10:47,1.2,10,1.3,9,2,9
2015/12/5 10:48,1.2,10,1.2,9,2.5,10
2015/12/5 10:49,1.2,10,1.2,10,1.8,9
2015/12/5 10:50,1.2,9,1.3,10,1.8,12
2015/12/5 10:51,1.2,9,1.2,10,2,10
2015/12/5 10:52,1.3,9,1.3,10,1.8,10
2015/12/5 10:53,1.1,10,1.3,10,1.6,10
2015/12/5 10:54,1.1,10,1.1,10,2,8
2015/12/5 10:55,1,10,1.1,10,1.8,9
2015/12/5 10:56,1,10,1,10,1.5,9
2015/12/5 10:57,1,10,1,10,1.4,9
2015/12/5 10:58,1,9,1,10,1.6,7
2015/12/5 10:59,0.9,9,1,10,1,7
2015/12/5 11:00,0.9,9,0.9,9,1.3,6
2015/12/5 11:01,0.9,8,0.9,9,1.6,2
2015/12/5 11:02,0.9,7,0.9,9,1.6,3
2015/12/5 11:03,0.9,7,0.9,10,1,4
2015/12/5 11:04,0.9,6,0.9,10,1.5,3
2015/12/5 11:05,1,5,1,10,1.6,2
2015/12/5 11:06,0.9,4,1,10,1,3
2015/12/5 11:07,0.8,4,0.9,10,0.9,5
2015/12/5 11:08,0.8,4,0.8,9,1,5
2015/12/5 11:09,0.8,3,0.8,5,0.9,3
2015/12/5 11:10,0.7,3,0.7,5,0.8,5
2015/12/5 11:11,0.6,3,0.7,5,1.4,8
2015/12/5 11:12,0.5,4,0.6,5,0.9,8
2015/12/5 11:13,0.5,4,0.5,5,0.8,10
2015/12/5 11:14,0.5,4,0.5,5,1.9,8
2015/12/5 11:15,0.5,5,0.5,5,2.1,10
2015/12/5 11:16,0.6,6,0.6,4,2,8
2015/12/5 11:17,0.7,6,0.7,4,2,8
2015/12/5 11:18,0.7,7,0.7,4,1.8,8
2015/12/5 11:19,0.8,7,0.8,7,2.2,6
2015/12/5 11:20,0.8,7,0.8,7,1.3,6
2015/12/5 11:21,0.9,7,0.9,7,1.8,8
2015/12/5 11:22,1,7,1,7,2.1,8
2015/12/5 11:23,1.1,8,1.1,8,1.9,9
2015/12/5 11:24,1,7,1.1,8,1,8
2015/12/5 11:25,1,7,1,8,2.1,8
2015/12/5 11:26,0.9,7,1,8,1,8
2015/12/5 11:27,0.8,6,0.9,8,0.3,2